Regional Weather Roundup
Issued by NWS

Home | Current Version | Previous Version | Text Only | Print | Product List | Glossary Off
Versions: 1 2 3 4 5 6 7 8 9 10 11 12 13 14 15 16 17 18 19 20 21 22 23 24 25 26 27 28 29 30 31 32 33 34 35 36 37 38 39 40 41 42 43 44 45 46 47 48 49 50

000
ASUS43 KFSD 171810
RWRSD

WEATHER ROUNDUP FOR SOUTH DAKOTA
NATIONAL WEATHER SERVICE SIOUX FALLS SD
1200 PM CST WED JAN 17 2018

NOTE: "FAIR" INDICATES FEW OR NO CLOUDS BELOW 12,000 FEET WITH NO
SIGNIFICANT WEATHER AND/OR OBSTRUCTIONS TO VISIBILITY.


SDZ001>005-009-010-012>017-171900-
NORTHWEST AND NORTH CENTRAL SOUTH DAKOTA

CITY           SKY/WX    TMP DP  RH WIND       PRES   REMARKS
BUFFALO          N/A     30  21  69 SW7       30.16S WCI  23
FAITH            N/A     34  22  61 W15       30.22S WCI  24
MOBRIDGE       SUNNY     27  14  58 CALM      30.15F
$$

SDZ012>016-024>037-041>051-057-063-072>074-171900-
SOUTHWEST AND SOUTH CENTRAL SOUTH DAKOTA

CITY           SKY/WX    TMP DP  RH WIND       PRES   REMARKS
RAPID CTY ARPT SUNNY     43  27  53 N13       30.25F
PIERRE         SUNNY     28  13  53 W7        30.23F WCI  21
CUSTER         SUNNY     41  17  38 NW8       30.24R
ELLSWORTH AFB  SUNNY     42  25  50 N15       30.24F
PHILIP         SUNNY     36  23  59 W10       30.26F
PINE RIDGE     SUNNY     35  13  40 SW6       30.29F
SPEARFISH        N/A     41  21  45 NW16      30.28S
WINNER         FAIR      32  17  54 SW12      30.25F WCI  23
$$

SDZ004>011-016>023-039-040-171900-
NORTHEAST SOUTH DAKOTA

CITY           SKY/WX    TMP DP  RH WIND       PRES   REMARKS
ABERDEEN       SUNNY     24  12  60 SW13      30.17F WCI  12
WATERTOWN      CLOUDY    22  11  62 SW15      30.15F WCI   9
BROOKINGS      CLOUDY    20   9  62 SW14      30.20F WCI   7
SISSETON         N/A     31  12  45 N9G20     30.08R WCI  23
$$

SDZ017-020-022-023-036>040-048>070-171900-
SOUTHEAST SOUTH DAKOTA

CITY           SKY/WX    TMP DP  RH WIND       PRES   REMARKS
SIOUX FALLS    CLOUDY    21  10  62 SW10      30.28F WCI  10
HURON          SUNNY     23  11  60 S8        30.23F WCI  14
CHAMBERLAIN    SUNNY     30  16  56 W12       30.25F WCI  21
MITCHELL       SUNNY     24  12  60 SW10      30.26F WCI  14
YANKTON        SUNNY     27  12  53 S9        30.32F WCI  18
$$

ABBREVIATIONS USED IN REMARKS
   TC - TEMPERATURE IN CELSIUS
  WCI - WIND CHILL INDEX
   HX - HEAT INDEX
  VSB - VISIBILITY





USA.gov is the U.S. government's official web portal to all federal, state and local government web resources and services.